FW7275 Weather Reports


Display with metric or nautical units.
time (UTC)temp
F
wind
direction
speed
MPH
gust
MPH
rain 1hr
in
rain 24hr
in
rain mn
in
humidity
%
barometer
mb
20260504215024 62 0 0.0 0.0 0.00 0.00 0.00 64
20260504214032 63 0 0.0 0.0 0.00 0.00 0.00 62
20260504213032 63 0 0.0 0.0 0.00 0.00 0.00 61
20260504212022 63 0 0.0 0.0 0.00 0.00 0.00 61
20260504211035 64 0 0.0 0.0 0.00 0.00 0.00 60
20260504210037 63 0 0.0 0.0 0.00 0.00 0.00 60
20260504205032 62 0 0.0 0.0 0.00 0.00 0.00 61
20260504204025 61 0 0.0 0.0 0.00 0.00 0.00 63
20260504203027 62 0 0.0 0.0 0.00 0.00 0.00 62
20260504201032 63 0 0.0 0.0 0.00 0.00 0.00 61
20260504200036 63 0 0.0 0.0 0.00 0.00 0.00 60
20260504195022 64 0 0.0 0.0 0.00 0.00 0.00 59
20260504192031 66 0 0.0 0.0 0.00 0.00 0.00 56
20260504191027 67 0 0.0 0.0 0.00 0.00 0.00 54
20260504190040 68 0 0.0 0.0 0.00 0.00 0.00 54
20260504185025 69 0 0.0 0.0 0.00 0.00 0.00 52
20260504183033 71 0 0.0 0.0 0.00 0.00 0.00 49
20260504182031 71 0 0.0 0.0 0.00 0.00 0.00 48
20260504181022 72 0 0.0 0.0 0.00 0.00 0.00 48
20260504180038 73 0 0.0 0.0 0.00 0.00 0.00 46
20260504175028 73 0 0.0 0.0 0.00 0.00 0.00 46
20260504174024 74 0 0.0 0.0 0.00 0.00 0.00 44
20260504171032 75 0 0.0 0.0 0.00 0.00 0.00 44
20260504151021 81 0 0.0 0.0 0.00 0.00 0.00 37
20260504141029 80 0 0.0 0.0 0.00 0.00 0.00 37
20260504081025 73 0 0.0 0.0 0.00 0.00 0.00 43
20260504045026 55 0 0.0 0.0 0.00 0.00 0.00 71
20260504044031 53 0 0.0 0.0 0.00 0.00 0.00 73
20260504043034 53 0 0.0 0.0 0.00 0.00 0.00 73
20260504041022 52 0 0.0 0.0 0.00 0.00 0.00 73
20260504040036 53 0 0.0 0.0 0.00 0.00 0.00 72
20260504035020 53 0 0.0 0.0 0.00 0.00 0.00 71
20260504034027 54 0 0.0 0.0 0.00 0.00 0.00 71
20260504033025 54 0 0.0 0.0 0.00 0.00 0.00 69
20260504032032 55 0 0.0 0.0 0.00 0.00 0.00 68
20260504030036 56 0 0.0 0.0 0.00 0.00 0.00 66
20260504025032 57 0 0.0 0.0 0.00 0.00 0.00 65
20260504024023 58 0 0.0 0.0 0.00 0.00 0.00 64
20260504023020 58 0 0.0 0.0 0.00 0.00 0.00 63
20260504022029 59 0 0.0 0.0 0.00 0.00 0.00 63
20260504021026 59 0 0.0 0.0 0.00 0.00 0.00 63
20260504020029 59 0 0.0 0.0 0.00 0.00 0.00 62
20260504015021 60 0 0.0 0.0 0.00 0.00 0.00 63
20260504014027 60 0 0.0 0.0 0.00 0.00 0.00 63
20260504013034 60 0 0.0 0.0 0.00 0.00 0.00 61
20260504012028 61 0 0.0 0.0 0.00 0.00 0.00 61
20260504011018 61 0 0.0 0.0 0.00 0.00 0.00 60
20260504010031 61 0 0.0 0.0 0.00 0.00 0.00 61
20260504005020 62 0 0.0 0.0 0.00 0.00 0.00 61
20260504004031 62 0 0.0 0.0 0.00 0.00 0.00 61
20260504000039 61 0 0.0 0.0 0.00 0.00 0.00 60
20260503234024 60 0 0.0 0.0 0.00 0.00 0.00 60
20260503233029 59 0 0.0 0.0 0.00 0.00 0.00 61
20260503231024 58 0 0.0 0.0 0.00 0.00 0.00 62
20260503230041 59 0 0.0 0.0 0.00 0.00 0.00 61
20260503225023 59 0 0.0 0.0 0.00 0.00 0.00 61
20260503224032 58 0 0.0 0.0 0.00 0.00 0.00 62
20260503223029 58 0 0.0 0.0 0.00 0.00 0.00 63
20260503222030 58 0 0.0 0.0 0.00 0.00 0.00 63
20260503221025 58 0 0.0 0.0 0.00 0.00 0.00 63
20260503220039 58 0 0.0 0.0 0.00 0.00 0.00 63